Regional Weather Roundup
Issued by NWS

Home | Current Version | Previous Version | Text Only | Print | Product List | Glossary On
Versions: 1 2 3 4 5 6 7 8 9 10 11 12 13 14 15 16 17 18 19 20 21 22 23 24 25 26 27 28 29 30 31 32 33 34 35 36 37 38 39 40 41 42 43 44 45 46 47 48 49 50
000
ASHW40 PHFO 310612
RWRHI

WEATHER ROUNDUP FOR HAWAII
NATIONAL WEATHER SERVICE HONOLULU HI
800 PM HST FRI JUL 30 2021

THIS IS AN AUTOMATED REPORT THAT HAS NOT BEEN QUALITY CONTROLLED.

NOTE..."FAIR" INDICATES FEW OR NO CLOUDS BELOW 12,000 FEET WITH NO
SIGNIFICANT WEATHER AND/OR OBSTRUCTIONS TO VISIBILITY.

* - THESE SITES REPORT LIMITED FIELDS
# - BUOY DATA PROVIDED BY PACIFIC ISLANDS OCEAN OBSERVING SYSTEM.

HIZ001-003-004-029>031-310700-
KAUAI-NIIHAU-

CITY           SKY/WX    TMP DP  RH WIND       PRES   REMARKS
LIHUE APT      CLOUDY    81  71  71 E15       30.07R
PORT ALLEN*      N/A     79 N/A N/A E17G23      N/A
POIPU*         NOT AVBL
PRINCEVILLE*     N/A     75 N/A N/A SE5         N/A
KOKOLE POINT*  NOT AVBL
MOLOAA DAIRY*    N/A     77  68  73 E6G15       N/A
WAIMEA HTS*    NOT AVBL
PUU OPAE*      NOT AVBL
PUU LUA*       NOT AVBL
MAKAHA RIDGE*  NOT AVBL
$$

HIZ006-007-009>011-032>036-310700-
OAHU-

CITY           SKY/WX    TMP DP  RH WIND       PRES   REMARKS
HONOLULU       PTCLDY    80  67  64 E14       30.04R
KALAELOA       CLEAR     81  67  62 VRB7      30.04R
KANEOHE MCB    CLOUDY    79  68  69 E10       30.03R
WHEELER FIELD  FAIR      76  66  72 E9        30.07R
BELLOWS*       NOT AVBL
KAHUKU*        NOT AVBL
WHEELER*       NOT AVBL
WAIANAE HARBOR NOT AVBL
DILLINGHAM*      N/A     79  66  65 E2G13       N/A
KAHUKU TRN*      N/A     75  68  78 E7G20       N/A
KAWAILOA*      NOT AVBL
KII*             N/A     79  72  78 E20G25      N/A
MAKUA RANGE*     N/A     79  66  65 E8          N/A
OAHU FOREST NW NOT AVBL
SCHOFIELD BRK*   N/A     73  66  78 E3          N/A
SCHOFIELD S*   NOT AVBL
WAIANAE VLY*   NOT AVBL
KUAOKALA*      NOT AVBL
HONOULIUULI*   NOT AVBL
MOKUOLOE IS*   NOT AVBL
PALEHUA*       NOT AVBL
WAIAWA PHB*    NOT AVBL
$$

HIZ037>041-310700-
MOLOKAI-

CITY           SKY/WX    TMP DP  RH WIND       PRES   REMARKS
MOLOKAI AIRPT  CLEAR     75  68  78 NE17G25   30.04R
KALAUPAPA      NOT AVBL
MAKAPULAPAI*   NOT AVBL
MOLOKAI 1*     NOT AVBL
PUU ALII*      NOT AVBL
$$

HIZ015-042>044-310700-
LANAI-

CITY           SKY/WX    TMP DP  RH WIND       PRES   REMARKS
LANAI CITY     MOCLDY    72  50  46 NE14      30.08R
LANAI 1*       NOT AVBL
$$

HIZ016-310700-
KAHOOLAWE-

CITY           SKY/WX    TMP DP  RH WIND       PRES   REMARKS
KAHOOLAWE*     NOT AVBL
HAKIOAWA*      NOT AVBL
HONOKANAIA*    NOT AVBL
KANELOA*         N/A     73  70  88 E26G39    30.05S
KEALIALALO*    NOT AVBL
LUA MAKIKA*    NOT AVBL
$$

HIZ017-018-022-045>050-310700-
MAUI-

CITY           SKY/WX    TMP DP  RH WIND       PRES   REMARKS
KAHULUI        PTCLDY    75  68  78 NE17      30.02R
KAPALUA-W MAUI NOT AVBL
HANA AIRPORT   NOT AVBL
HANA*            N/A     77 N/A N/A E9G17       N/A
HALEAKALA SUMM   N/A     52  27  37 E16         N/A  VSB 0
MAALAEA BAY*   NOT AVBL
HALEAKALA*     NOT AVBL
KAUPO GAP*     NOT AVBL
KULA 1*          N/A     60  34  37 E3          N/A
$$

HIZ023-026-051>054-310700-
BIG ISLAND OF HAWAII COAST AND LOWER SLOPES-

CITY           SKY/WX    TMP DP  RH WIND       PRES   REMARKS
KAILUA KONA    CLOUDY    80  71  74 SE6       29.98R
HILO           CLOUDY    75  71  87 SW3       30.07R
HONOKAA*       NOT AVBL
KAWAIHAE MWT*  NOT AVBL
KAWAIHAE*        N/A     81 N/A N/A W1          N/A
SOUTH POINT*     N/A     72 N/A N/A E22G31      N/A
UPOLU AIRPORT*   N/A     75 N/A N/A E15G24      N/A
KAMUELA*       NOT AVBL
HAKALAU*         N/A     52  40  63 W3          N/A
KALOKO-HONOKO* NOT AVBL
PALI 2*          N/A     66  63  88 E8G16       N/A
KEALAKOMO*       N/A     77  68  73 NE17G23     N/A
KAUPULEHU*     NOT AVBL
KAPAPALA*        N/A     70  66  88 E3G18       N/A
LOWER KAHUKU*  NOT AVBL
PUHE CS*       NOT AVBL
PUHO CS*       NOT AVBL
PTA KEAMUKU*   NOT AVBL
WAIKOLOA*      NOT AVBL
$$

HIZ027-028-310700-
BIG ISLAND OF HAWAII INTERIOR AND SUMMMITS-

CITY           SKY/WX    TMP DP  RH WIND       PRES   REMARKS
BRADSHAW FIELD PTCLDY    62  50  64 E5        30.35R
MK VISITOR CEN   N/A     57  19  23 NE13        N/A
MAUNA KEA*       N/A     36  14  41 N13         N/A  WCI  27
MAUNA LOA*     NOT AVBL
MAUNA LOA 1*   NOT AVBL
PTA KIPUKA*      N/A     63  59  88 NW3         N/A
PTA RANGE 17*    N/A     61  61 100 W6G12       N/A
PTA WEST*        N/A    N/A N/A N/A NW3         N/A
NENE CABIN*    NOT AVBL
AHUMOA*        NOT AVBL
PTA PORTABLE*  NOT AVBL
PUU MALI*        N/A     66  32  28 E12G21      N/A
$$

HIC003-310700-
NORTHWEST ISLANDS-

CITY           SKY/WX    TMP DP  RH WIND       PRES   REMARKS
MIDWAY ISLAND  PTCLDY    79  72  78 E10       30.04S HAZE
MIDWAY NOS*    NOT AVBL
FRENCH FRIGATE NOT AVBL
$$

PHZ110>124-180-310700-
BUOY REPORTS

STATION/POSITION TIME  TEMP    WIND        PRES    WAVE   SWELL
                       AIR SEA DIR/SP/G            HT/PER HT/DIR
                 (UTC) (F)     (DEG/KT/KT) (MB)    (FT/S) (FT/D)
BUOY 51101       0550   74 81   90/ 17/ 21 1018.9R   6/ 8   2/130
BUOY 51100       NOT AVBL
BUOY 51002       0550   76 80  110/ 14/ 19 1014.6R   7/ 8   3/130
BUOY 51003       0550   78 81  110/ 12/ 16 1016.0R   6/ 7   5/ 90
BUOY 51004       0550   77 78   80/ 17/ 21 1014.8R   7/ 8   3/110
WAIMEA BAY#      0527      80                N/A     4/ 7
MOKAPU POINT#    NOT AVBL
LANAI#           NOT AVBL
BARBERS PT#      0556      80                N/A     4/ 8   2/190
PAUWELA#         0556      78                N/A     5/ 8
HILO#            NOT AVBL
KANEOHE BAY#     0526      79                N/A     5/ 7
KANEOHE BAY 2#   NOT AVBL
HANALEI#         0526      80                N/A     6/ 7   2/290
KAHULUI HARBOR   0530   75 79   70/ 21/ 24 1016.7R
HONOLULU HARBOR  0530   79 81   80/  4/ 12 1017.4R
PEARL HARBOR#    0530      81                N/A     4/ 8   2/150
KILO NALU        NOT AVBL
HILO HARBOR      0530   73 80  270/  2/  3 1016.6R
MOKUOLOE         0536   79 81   90/ 13/ 18 1017.4R
NAWILIWILI       0530   78      60/ 12/ 14 1017.9R
WHOTS BUOY       NOT AVBL
BUOY 51028       NOT AVBL
$$

......................KEY........................................
  SKY/WX - SKY CONDITIONS/PRESENT WEATHER
  TMP    - TEMPERATURE IN FAHRENHEIT
  DWPT   - DEWPOINT IN FAHRENHEIT
  RH     - RELATIVE HUMIDITY IN PERCENT
  WIND   - DIRECTION AND SPEED /MPH FOR ISLANDS...KTS FOR BUOYS/
  PRES   - MEAN SEA LEVEL PRESSURE IN INCHES OF HG
  VSB    - VISIBILITY IN MILES
  HX     - HEAT INDEX
  WCI    - WIND CHILL INDEX
  VRB    - VARIABLE WIND DIRECTION
  N/A    - NOT AVAILABLE



USA.gov is the U.S. government's official web portal to all federal, state and local government web resources and services.